Location: Kellogg
(38.0159°N, 90.0546°W)
Time: 14:44:08
(UTC+00:00)

Courier 1B - Pass Details

Date: 13 September 2024
Orbit: 962 x 1208 km, 28.3° (Epoch: 07 October)

Event Time Altitude Azimuth Distance (km) Brightness Sun altitude
Rises 18:19:29 0° 197° (SSW) 3,822 11.1 55.0°
Reaches altitude 10° 18:24:49 10° 164° (SSE) 2,942 10.7 54.7°
Maximum altitude 18:26:37 11° 149° (SSE) 2,892 10.5 54.7°
Drops below altitude 10° 18:28:27 10° 134° (SE) 2,991 10.4 54.6°
Sets 18:34:02 0° 102° (ESE) 4,020 10.7 54.3°
